Current Version              Previous Version:    01  02  03  04  05  06  07  08  09  10  11  12  13  14  15  16  17  18  19  20  21  22  23  24  25  26  27  28  29  30  
   31  32  33  34  35  36  37  38  39  40  41  42  43  44  45  46  47  48  49  50  51  52  53  54  55  56  57  58  59  60  

[Printable]
341
ASUS44 KFWD 020303
RWRTX
NORTH TEXAS HOURLY WEATHER ROUNDUP
NATIONAL WEATHER SERVICE FORT WORTH TX
1000 PM CDT WED OCT 01 2014

NOTE: "FAIR" INDICATES FEW OR NO CLOUDS BELOW 12,000 FEET WITH NO
SIGNIFICANT WEATHER AND/OR OBSTRUCTIONS TO VISIBILITY.

TXZ118-119-020400-
DALLAS/FORT WORTH METROPLEX

CITY           SKY/WX    TMP DP  RH WIND       PRES   REMARKS
DFW AIRPORT    PTCLDY    85  66  53 S12       29.76S
DALLAS LOVE    PTCLDY    86  66  51 S13       29.77R
FTW MEACHAM    CLEAR     86  66  51 S16       29.76R
DAL-EXECUTIVE  CLEAR     84  65  52 SE7       29.78R
FTW-ALLIANCE   MOCLDY    84  64  50 S13       29.76R
FTW-NAS-JRB    CLEAR     88  64  44 SE13      29.80R
FTW-SPINKS     CLEAR     82  65  56 SE7       29.79S
ARLINGTON      CLEAR     84  65  52 SE12      29.77S
GRAND PRAIRIE  CLEAR     84  64  51 SE8       29.78F
ADDISON        CLEAR     84  64  51 SE13      29.77
MESQUITE       CLEAR     82  65  57 SE7       29.79
LANCASTER      CLEAR     80  64  57 S6        29.79S
$$

TXZ091>094-102>105-117-120-121-131>134-020400-
NORTH CENTRAL TEXAS

CITY           SKY/WX    TMP DP  RH WIND       PRES   REMARKS
SHRMAN/DENISON CLEAR     81  65  58 SE7       29.79R
GAINESVILLE    CLEAR     78  66  66 SE8       29.78S
BOWIE          CLEAR     83  65  55 SE9G18    29.75F
BRIDGEPORT     PTCLDY    84  62  47 S8        29.77R
DECATUR        CLEAR     83  64  51 S15       29.77S
DENTON         CLEAR     84  65  52 S12       29.76R
MCKINNEY       CLEAR     81  67  62 SE8       29.78R
GREENVILLE     CLEAR     77  68  73 SE6       29.80S
ROCKWALL       CLEAR     82  68  62 SE6       29.78R
TERRELL        CLEAR     83  67  58 S8        29.80R
WAXAHACHIE     CLEAR     80  66  63 SE6       29.80S
CLEBURNE       CLEAR     82  68  61 SE9       29.80S
GRANBURY       CLEAR     86  65  50 SE12      29.78S
$$

TXZ083>090-098>101-113>116-127>130-139>142-154-155-020400-
WESTERN NORTH TEXAS

CITY           SKY/WX    TMP DP  RH WIND       PRES   REMARKS
WICHITA FALLS  PTCLDY    85  65  51 S18       29.70R
WF-KICKAPOO    PTCLDY    86  62  44 SE14G20   29.72R
VERNON         PTCLDY    84  62  48 SE20G30   29.72R
ABILENE        PTCLDY    85  64  49 S20G28    29.77R
ABILENE-DYESS  PTCLDY    84  64  51 S14       29.76R
BRECKENRIDGE     N/A     87  61  42 S13G21    29.75R
MINERAL WELLS  PTCLDY    84  65  52 SE16      29.75R
STEPHENVILLE   CLEAR     82  64  55 S10       29.81S
COMANCHE       CLEAR     81  64  56 SE7       29.80R
BROWNWOOD      CLEAR     82  66  57 S9        29.79R
COLEMAN        CLEAR     82  64  53 S10       29.80R
BRADY          CLEAR     82  64  54 SE9       29.81S
$$

TXZ143>147-156>162-174-175-020400-
CENTRAL TEXAS

CITY           SKY/WX    TMP DP  RH WIND       PRES   REMARKS
WACO           CLEAR     83  68  60 SE12      29.79R
WACO-TSTC      CLEAR     81  68  65 SE5       29.79R
WACO-MCGREGOR  CLEAR     81  64  57 S10       29.80S
HILLSBORO      CLEAR     83  65  55 SE10      29.79S
CORSICANA      CLEAR     81  67  62 SE8       29.81R
MEXIA          CLEAR     78  70  76 SE3       29.80S
HEARNE         PTCLDY    81  72  73 SE8       29.81R
CAMERON        CLEAR     82  72  70 S8        29.80S
TEMPLE         CLEAR     81  64  57 SE13      29.79S
KILLEEN        CLEAR     79  66  65 S8        29.81R
KILLEEN-SKYLRK CLEAR     81  64  57 S8        29.81R
FORT HOOD      CLEAR     82  68  62 SE7       29.80R
HAMILTON       CLEAR     80  64  58 S10       29.81R
LAMPASAS       CLEAR     81  69  68 S5        29.81R
$$

TXZ095>097-106>112-122>126-135>138-148>153-164>167-020400-
EAST TEXAS

CITY           SKY/WX    TMP DP  RH WIND       PRES   REMARKS
PARIS          CLEAR     77  66  69 SE9       29.81S
SULPHUR SPRNGS CLEAR     82  69  65 SE8       29.82S
MOUNT PLEASANT CLEAR    N/A N/A N/A SE5       29.83S
MINEOLA        CLEAR     81  72  74 SE6       29.82S
TYLER          CLEAR     81  71  71 SE14      29.82R
LONGVIEW       CLEAR     80  70  71 S9        29.83R
MARSHALL       CLEAR     81  74  80 SE3       29.86S
ATHENS         CLEAR     79  72  78 SE7       29.81R
PALESTINE      CLEAR     80  74  80 SE8       29.83S
JACKSONVILLE   CLEAR     78  73  82 SE8       29.86S
HENDERSON      CLEAR     78  71  81 SE5       29.85R
NACOGDOCHES    CLEAR     77  73  88 SE6       29.85S
LUFKIN         CLEAR     80  74  81 SE6       29.85R
$$

SUPPLEMENTAL OBSERVATIONS (CENTRAL)

CITY           SKY/WX    TMP DP  RH WIND       PRES   REMARKS
$$

SUPPLEMENTAL OBSERVATIONS (WEST)

CITY           SKY/WX    TMP DP  RH WIND       PRES   REMARKS
$$

SUPPLEMENTAL OBSERVATIONS (EAST)

CITY           SKY/WX    TMP DP  RH WIND       PRES   REMARKS
$$

SUPPLEMENTAL OBSERVATIONS ARE A COLLECTION OF AUTOMATED INSTRUMENTS
THAT ARE MAINTAINED BY A VARIETY OF FEDERAL AND STATE AGENCIES.
CERTAIN ELEMENTS...SUCH AS HUMIDITY VALUES AND SUSTAINED WIND
SPEEDS...MAY BE APPROXIMATED.